802  
SXUS52 KJAX 222113  
OSOJAX  
OTHER SURFACE OBSERVATIONS  
NATIONAL WEATHER SERVICE JACKSONVILLE FL  
500 PM EDT MON MAY 22 2017  
 
FLZ020>025-030>033-035>038-040-222200-   
..FLORIDA
 
 
 
CITY SKY/WX TMP DP RH WIND PRES REMARKS  
CECIL FIELD PTSUNNY 88 68 51 MISG 29.93S  
HERLONG FIELD NOT AVBL  
FERNANDINA BCH NOT AVBL  
LAKE CITY FAIR 91 61 35 W16 29.93F  
JUNIPER SPGS NOT AVBL  
BUNNELL NOT AVBL  
KEYSTONE HGTS CLOUDY 75 72 88 W18G30 29.98R  

 
 
GAZ132>136-149>154-162>166-222200-   
..GEORGIA
 
 
 
CITY SKY/WX TMP DP RH WIND PRES REMARKS  
JESUP FAIR 82 68 61 S6 29.93F  
HOMERVILLE MOCLDY N/A N/A N/A W6 29.95F  
SWAINSBORO FAIR 81 72 74 W3 29.95F  
CORDELE NOT AVBL  
EASTMAN FAIR 85 61 44 E3 29.96F  

 
 
PLEASE NOTE: THESE OBSERVATIONS ARE NOT QUALITY CONTROLLED AND MAY  
NOT BE AVAILABLE AT ALL TIMES.  

 
 
 
CLICK HERE TO GO TO PREVIOUS BULLETINS.

The Nexlab FL Page
The Nexlab GA Page Main Text Page